QPF
0.00 0.00 0.01 0.00 0.00 0.00 0.00 0.01 0.01 0.00 0.01 0.00 0.01 0.01 0.00 0.00 0.00 0.00 0.00 0.01 0.01 0.01 0.02 0.02 0.01 0.01 0.02 0.01 0.01 0.02 0.03 0.04 0.04 0.04 0.03 0.03 0.03 0.03 0.02 0.03 0.03 0.03 0.03 0.02
0.00 0.00 0.00 0.00 0.00 0.00 0.01 0.01 0.01 0.00 0.01 0.00 0.01 0.01 0.00 0.00 0.00 0.00 0.00 0.01 0.01 0.01 0.01 0.01 0.01 0.01 0.00 0.01 0.02 0.02 0.01 0.01 0.02 0.03 0.03 0.03 0.03 0.06 0.07 0.06 0.05 0.04 0.04 0.04
0.00 0.00 0.00 0.00 0.00 0.00 0.01 0.01 0.01 0.01 0.01 0.01 0.01 0.01 0.00 0.00 0.00 0.00 0.00 0.00 0.01 0.00 0.00 0.00 0.00 0.00 0.00 0.01 0.02 0.02 0.01 0.01 0.02 0.02 0.02 0.02 0.02 0.05 0.08 0.09 0.08 0.06 0.06 0.05
0.00 0.00 0.00 0.00 0.00 0.00 0.01 0.01 0.01 0.01 0.02 0.02 0.01 0.01 0.00 0.00 0.00 0.00 0.00 0.00 0.00 0.00 0.00 0.00 0.00 0.01 0.01 0.02 0.02 0.02 0.02 0.02 0.02 0.02 0.02 0.02 0.02 0.02 0.05 0.07 0.06 0.05 0.06 0.05
0.00 0.00 0.00 0.00 0.00 0.00 0.00 0.01 0.01 0.01 0.01 0.02 0.01 0.01 0.00 0.00 0.00 0.00 0.00 0.00 0.00 0.00 0.00 0.00 0.01 0.01 0.02 0.05 0.08 0.06 0.04 0.03 0.03 0.03 0.02 0.01 0.01 0.01 0.02 0.03 0.04 0.04 0.04 0.05
0.00 0.00 0.00 0.00 0.00 0.00 0.00 0.01 0.01 0.01 0.01 0.02 0.01 0.01 0.01 0.00 0.00 0.00 0.00 0.00 0.00 0.00 0.00 0.01 0.01 0.01 0.04 0.06 0.07 0.07 0.06 0.06 0.05 0.05 0.03 0.03 0.02 0.02 0.02 0.02 0.02 0.02 0.01 0.02
0.00 0.00 0.00 0.00 0.00 0.00 0.00 0.00 0.01 0.01 0.01 0.01 0.01 0.01 0.01 0.00 0.01 0.00 0.00 0.00 0.00 0.00 0.00 0.01 0.02 0.03 0.04 0.05 0.05 0.04 0.04 0.04 0.04 0.04 0.04 0.03 0.02 0.02 0.02 0.01 0.01 0.01 0.01 0.01
0.00 0.00 0.00 0.00 0.00 0.00 0.00 0.00 0.00 0.00 0.01 0.01 0.01 0.01 0.00 0.00 0.00 0.00 0.00 0.01 0.01 0.01 0.03 0.05 0.04 0.04 0.03 0.03 0.03 0.03 0.03 0.03 0.03 0.02 0.02 0.02 0.01 0.02 0.01 0.01 0.02 0.02 0.01 0.01
0.00 0.00 0.00 0.00 0.00 0.00 0.00 0.00 0.00 0.00 0.00 0.00 0.01 0.01 0.00 0.00 0.00 0.00 0.00 0.01 0.02 0.02 0.07 0.06 0.04 0.05 0.04 0.03 0.03 0.02 0.02 0.03 0.02 0.02 0.02 0.01 0.01 0.01 0.01 0.01 0.02 0.01 0.01 0.01
0.00 0.00 0.00 0.00 0.00 0.01 0.01 0.00 0.00 0.00 0.00 0.01 0.00 0.00 0.00 0.00 0.00 0.00 0.00 0.01 0.01 0.02 0.03 0.02 0.03 0.04 0.04 0.05 0.03 0.02 0.02 0.03 0.03 0.02 0.02 0.01 0.01 0.01 0.01 0.01 0.02 0.01 0.01 0.01
0.00 0.00 0.00 0.00 0.00 0.00 0.00 0.00 0.00 0.00 0.01 0.01 0.01 0.00 0.00 0.00 0.00 0.00 0.00 0.00 0.01 0.01 0.02 0.02 0.03 0.04 0.05 0.06 0.05 0.04 0.04 0.03 0.04 0.04 0.02 0.01 0.01 0.00 0.01 0.03 0.03 0.02 0.01 0.02
0.00 0.00 0.00 0.00 0.00 0.00 0.00 0.00 0.00 0.00 0.00 0.01 0.01 0.00 0.00 0.00 0.00 0.00 0.01 0.01 0.01 0.02 0.02 0.02 0.03 0.03 0.03 0.03 0.03 0.04 0.06 0.05 0.03 0.03 0.02 0.02 0.02 0.02 0.03 0.05 0.03 0.02 0.02 0.03
0.00 0.00 0.00 0.00 0.00 0.00 0.00 0.00 0.00 0.00 0.00 0.00 0.00 0.00 0.00 0.00 0.00 0.01 0.01 0.01 0.02 0.02 0.02 0.02 0.02 0.02 0.03 0.03 0.02 0.02 0.03 0.02 0.02 0.02 0.01 0.01 0.02 0.04 0.07 0.08 0.04 0.03 0.02 0.02
0.00 0.00 0.00 0.00 0.00 0.00 0.00 0.00 0.00 0.00 0.00 0.00 0.00 0.00 0.00 0.00 0.01 0.01 0.02 0.02 0.02 0.02 0.01 0.01 0.02 0.02 0.02 0.03 0.02 0.02 0.01 0.01 0.01 0.02 0.02 0.02 0.04 0.07 0.09 0.07 0.05 0.03 0.02 0.02
0.00 0.00 0.00 0.00 0.00 0.00 0.00 0.00 0.00 0.00 0.00 0.00 0.00 0.00 0.00 0.00 0.01 0.01 0.02 0.02 0.01 0.01 0.01 0.01 0.01 0.02 0.02 0.02 0.02 0.01 0.01 0.01 0.02 0.02 0.03 0.04 0.08 0.10 0.10 0.08 0.05 0.03 0.04 0.03
0.00 0.00 0.00 0.00 0.00 0.00 0.00 0.00 0.00 0.00 0.00 0.00 0.00 0.00 0.00 0.01 0.01 0.01 0.01 0.01 0.01 0.01 0.01 0.01 0.01 0.02 0.02 0.02 0.02 0.01 0.01 0.01 0.02 0.02 0.03 0.05 0.06 0.07 0.07 0.05 0.04 0.04 0.04 0.03
0.00 0.00 0.00 0.00 0.01 0.01 0.01 0.00 0.01 0.00 0.00 0.00 0.00 0.00 0.00 0.01 0.01 0.01 0.02 0.02 0.02 0.02 0.02 0.01 0.02 0.02 0.02 0.02 0.01 0.02 0.01 0.01 0.01 0.02 0.03 0.04 0.04 0.05 0.04 0.03 0.02 0.02 0.02 0.02
0.00 0.00 0.00 0.01 0.02 0.02 0.01 0.01 0.01 0.01 0.00 0.00 0.00 0.00 0.00 0.01 0.01 0.02 0.02 0.02 0.02 0.03 0.03 0.02 0.03 0.02 0.02 0.02 0.01 0.01 0.02 0.02 0.02 0.02 0.02 0.02 0.02 0.02 0.02 0.02 0.01 0.01 0.01 0.01
0.00 0.00 0.00 0.01 0.02 0.01 0.01 0.01 0.01 0.02 0.02 0.01 0.00 0.01 0.01 0.01 0.01 0.02 0.02 0.02 0.03 0.04 0.04 0.03 0.02 0.02 0.02 0.02 0.02 0.01 0.02 0.02 0.02 0.02 0.02 0.02 0.02 0.02 0.03 0.03 0.02 0.02 0.02 0.02
0.00 0.00 0.00 0.00 0.01 0.01 0.01 0.02 0.02 0.03 0.03 0.02 0.01 0.01 0.01 0.01 0.02 0.02 0.02 0.03 0.03 0.04 0.04 0.03 0.02 0.02 0.02 0.03 0.02 0.02 0.03 0.03 0.03 0.03 0.03 0.03 0.03 0.04 0.04 0.04 0.04 0.04 0.04 0.04
0.00 0.00 0.00 0.00 0.00 0.01 0.01 0.01 0.01 0.03 0.03 0.04 0.03 0.01 0.01 0.01 0.01 0.02 0.03 0.03 0.03 0.03 0.03 0.02 0.02 0.02 0.02 0.04 0.05 0.05 0.04 0.04 0.04 0.05 0.06 0.06 0.05 0.06 0.06 0.06 0.06 0.05 0.05 0.06
0.00 0.00 0.00 0.00 0.00 0.00 0.00 0.00 0.01 0.02 0.04 0.04 0.03 0.02 0.01 0.02 0.02 0.02 0.03 0.03 0.02 0.02 0.02 0.02 0.02 0.02 0.02 0.02 0.04 0.05 0.05 0.06 0.06 0.05 0.05 0.06 0.06 0.07 0.06 0.06 0.06 0.05 0.05 0.04
0.00 0.00 0.00 0.00 0.00 0.00 0.00 0.00 0.01 0.01 0.04 0.05 0.05 0.04 0.02 0.02 0.02 0.02 0.02 0.02 0.01 0.01 0.01 0.01 0.01 0.01 0.01 0.02 0.02 0.03 0.04 0.05 0.05 0.04 0.04 0.04 0.04 0.04 0.04 0.04 0.05 0.05 0.03 0.02
0.01 0.00 0.01 0.00 0.00 0.00 0.00 0.01 0.01 0.01 0.03 0.06 0.07 0.06 0.03 0.02 0.02 0.02 0.02 0.01 0.01 0.01 0.01 0.01 0.00 0.01 0.01 0.02 0.02 0.02 0.04 0.06 0.06 0.05 0.04 0.03 0.03 0.04 0.05 0.05 0.05 0.05 0.04 0.03
0.01 0.01 0.01 0.01 0.00 0.00 0.00 0.00 0.01 0.01 0.03 0.06 0.07 0.05 0.02 0.01 0.01 0.01 0.01 0.01 0.01 0.01 0.01 0.01 0.01 0.00 0.00 0.01 0.01 0.02 0.03 0.07 0.08 0.07 0.06 0.04 0.03 0.03 0.04 0.04 0.04 0.03 0.03 0.03
0.01 0.01 0.01 0.01 0.01 0.01 0.01 0.01 0.01 0.01 0.03 0.05 0.05 0.04 0.02 0.01 0.01 0.01 0.01 0.01 0.01 0.01 0.01 0.01 0.01 0.01 0.00 0.00 0.01 0.01 0.01 0.02 0.04 0.04 0.03 0.03 0.03 0.03 0.03 0.03 0.03 0.03 0.03 0.04
MSLP
1007.18 1008.04 1008.80 1009.45 1010.00 1010.50 1010.98 1011.47 1011.98 1012.51 1013.02 1013.49 1013.88 1014.16 1014.34 1014.42 1014.42 1014.38 1014.32 1014.27 1014.23 1014.21 1014.20 1014.20 1014.20 1014.21 1014.24 1014.31 1014.44 1014.65 1014.94 1015.31 1015.73 1016.17 1016.58 1016.96 1017.26 1017.49 1017.65 1017.77 1017.87 1017.98 1018.14 1018.35
1007.68 1008.37 1008.94 1009.42 1009.85 1010.29 1010.78 1011.34 1011.95 1012.60 1013.21 1013.74 1014.15 1014.42 1014.56 1014.60 1014.57 1014.55 1014.54 1014.58 1014.66 1014.76 1014.86 1014.92 1014.95 1014.93 1014.90 1014.90 1014.95 1015.10 1015.36 1015.73 1016.17 1016.65 1017.11 1017.51 1017.80 1017.99 1018.08 1018.10 1018.10 1018.13 1018.21 1018.38
1008.01 1008.50 1008.87 1009.18 1009.52 1009.93 1010.48 1011.15 1011.91 1012.69 1013.42 1014.02 1014.44 1014.67 1014.73 1014.67 1014.57 1014.50 1014.50 1014.60 1014.78 1015.00 1015.22 1015.40 1015.49 1015.51 1015.47 1015.43 1015.44 1015.55 1015.79 1016.15 1016.61 1017.12 1017.60 1018.01 1018.30 1018.45 1018.47 1018.42 1018.33 1018.28 1018.30 1018.41
1008.19 1008.47 1008.66 1008.84 1009.12 1009.56 1010.19 1011.02 1011.95 1012.90 1013.75 1014.40 1014.81 1014.96 1014.89 1014.69 1014.46 1014.30 1014.26 1014.37 1014.63 1014.97 1015.32 1015.62 1015.83 1015.92 1015.93 1015.90 1015.90 1015.99 1016.21 1016.56 1017.01 1017.53 1018.02 1018.42 1018.69 1018.81 1018.79 1018.67 1018.52 1018.39 1018.35 1018.41
1008.29 1008.38 1008.42 1008.51 1008.77 1009.27 1010.04 1011.04 1012.16 1013.27 1014.22 1014.91 1015.28 1015.31 1015.09 1014.70 1014.30 1013.99 1013.87 1013.97 1014.27 1014.70 1015.19 1015.64 1015.97 1016.18 1016.26 1016.28 1016.29 1016.37 1016.57 1016.89 1017.33 1017.82 1018.30 1018.69 1018.95 1019.03 1018.97 1018.81 1018.61 1018.44 1018.35 1018.37
1008.39 1008.32 1008.24 1008.29 1008.57 1009.17 1010.08 1011.26 1012.55 1013.80 1014.84 1015.53 1015.83 1015.72 1015.31 1014.71 1014.11 1013.63 1013.40 1013.45 1013.77 1014.28 1014.89 1015.47 1015.95 1016.28 1016.46 1016.54 1016.58 1016.65 1016.83 1017.12 1017.52 1017.97 1018.42 1018.78 1019.02 1019.09 1019.01 1018.83 1018.60 1018.40 1018.27 1018.26
1008.53 1008.35 1008.20 1008.23 1008.57 1009.27 1010.33 1011.65 1013.09 1014.43 1015.51 1016.18 1016.38 1016.13 1015.52 1014.71 1013.90 1013.26 1012.90 1012.89 1013.20 1013.76 1014.46 1015.17 1015.78 1016.22 1016.50 1016.64 1016.72 1016.79 1016.94 1017.19 1017.54 1017.94 1018.35 1018.68 1018.90 1018.96 1018.89 1018.70 1018.48 1018.27 1018.13 1018.10
1008.72 1008.47 1008.30 1008.36 1008.76 1009.56 1010.73 1012.16 1013.68 1015.07 1016.14 1016.75 1016.84 1016.44 1015.65 1014.66 1013.68 1012.88 1012.41 1012.33 1012.62 1013.21 1013.97 1014.76 1015.47 1016.01 1016.37 1016.57 1016.67 1016.74 1016.86 1017.07 1017.37 1017.72 1018.08 1018.39 1018.60 1018.67 1018.61 1018.46 1018.26 1018.07 1017.94 1017.89
1008.95 1008.68 1008.53 1008.64 1009.10 1009.97 1011.21 1012.69 1014.21 1015.58 1016.60 1017.13 1017.11 1016.58 1015.66 1014.54 1013.43 1012.52 1011.97 1011.82 1012.08 1012.67 1013.45 1014.29 1015.05 1015.66 1016.07 1016.31 1016.43 1016.50 1016.59 1016.76 1017.01 1017.32 1017.65 1017.94 1018.14 1018.24 1018.22 1018.10 1017.94 1017.79 1017.68 1017.64
1009.16 1008.94 1008.85 1009.01 1009.54 1010.44 1011.69 1013.14 1014.61 1015.90 1016.83 1017.26 1017.14 1016.52 1015.52 1014.33 1013.16 1012.21 1011.60 1011.42 1011.64 1012.20 1012.97 1013.80 1014.57 1015.19 1015.62 1015.87 1016.00 1016.06 1016.14 1016.27 1016.48 1016.76 1017.06 1017.34 1017.55 1017.67 1017.69 1017.64 1017.53 1017.42 1017.34 1017.31
1009.34 1009.22 1009.21 1009.45 1010.02 1010.92 1012.12 1013.48 1014.84 1016.00 1016.79 1017.11 1016.92 1016.26 1015.25 1014.07 1012.92 1011.97 1011.37 1011.16 1011.35 1011.86 1012.57 1013.35 1014.07 1014.66 1015.07 1015.31 1015.42 1015.48 1015.54 1015.65 1015.82 1016.07 1016.35 1016.61 1016.84 1016.98 1017.05 1017.04 1016.99 1016.93 1016.89 1016.88
1009.50 1009.51 1009.63 1009.95 1010.54 1011.41 1012.51 1013.72 1014.91 1015.90 1016.55 1016.77 1016.53 1015.88 1014.92 1013.82 1012.75 1011.88 1011.32 1011.12 1011.26 1011.70 1012.31 1012.99 1013.62 1014.13 1014.49 1014.69 1014.78 1014.82 1014.85 1014.94 1015.09 1015.30 1015.55 1015.80 1016.01 1016.17 1016.26 1016.30 1016.29 1016.28 1016.28 1016.31
1009.69 1009.87 1010.12 1010.52 1011.12 1011.92 1012.89 1013.92 1014.90 1015.70 1016.20 1016.33 1016.07 1015.47 1014.62 1013.66 1012.74 1011.98 1011.49 1011.30 1011.41 1011.75 1012.25 1012.79 1013.29 1013.69 1013.95 1014.09 1014.14 1014.15 1014.16 1014.21 1014.33 1014.49 1014.69 1014.90 1015.09 1015.24 1015.34 1015.40 1015.43 1015.46 1015.51 1015.58
1009.98 1010.34 1010.73 1011.20 1011.79 1012.50 1013.31 1014.14 1014.90 1015.50 1015.85 1015.90 1015.65 1015.14 1014.44 1013.65 1012.91 1012.30 1011.90 1011.73 1011.80 1012.04 1012.39 1012.77 1013.11 1013.37 1013.53 1013.59 1013.58 1013.55 1013.52 1013.53 1013.59 1013.70 1013.83 1013.97 1014.11 1014.21 1014.29 1014.36 1014.42 1014.49 1014.58 1014.70
1010.46 1010.98 1011.49 1012.01 1012.57 1013.18 1013.81 1014.42 1014.96 1015.36 1015.57 1015.57 1015.34 1014.94 1014.40 1013.82 1013.26 1012.81 1012.51 1012.37 1012.38 1012.52 1012.72 1012.93 1013.11 1013.22 1013.26 1013.23 1013.16 1013.08 1013.00 1012.96 1012.95 1012.97 1013.02 1013.07 1013.12 1013.16 1013.20 1013.24 1013.31 1013.41 1013.55 1013.73
1011.15 1011.81 1012.40 1012.94 1013.45 1013.92 1014.37 1014.77 1015.09 1015.31 1015.40 1015.35 1015.17 1014.88 1014.52 1014.13 1013.77 1013.47 1013.25 1013.14 1013.10 1013.13 1013.18 1013.23 1013.25 1013.22 1013.14 1013.03 1012.90 1012.76 1012.64 1012.53 1012.44 1012.37 1012.31 1012.25 1012.20 1012.16 1012.14 1012.15 1012.22 1012.34 1012.52 1012.75
1012.03 1012.77 1013.40 1013.92 1014.34 1014.68 1014.94 1015.13 1015.25 1015.31 1015.30 1015.23 1015.10 1014.92 1014.72 1014.52 1014.32 1014.16 1014.03 1013.93 1013.85 1013.77 1013.70 1013.60 1013.48 1013.33 1013.16 1012.98 1012.80 1012.62 1012.45 1012.29 1012.12 1011.96 1011.79 1011.62 1011.46 1011.33 1011.24 1011.22 1011.27 1011.41 1011.62 1011.89
1013.02 1013.77 1014.37 1014.83 1015.14 1015.33 1015.41 1015.42 1015.38 1015.31 1015.22 1015.14 1015.06 1014.99 1014.93 1014.88 1014.83 1014.78 1014.71 1014.62 1014.50 1014.35 1014.17 1013.96 1013.73 1013.50 1013.27 1013.05 1012.84 1012.64 1012.44 1012.23 1012.01 1011.76 1011.50 1011.24 1010.99 1010.77 1010.63 1010.56 1010.60 1010.74 1010.96 1011.25
1013.97 1014.66 1015.19 1015.54 1015.73 1015.77 1015.70 1015.56 1015.38 1015.22 1015.09 1015.01 1014.99 1015.01 1015.07 1015.15 1015.21 1015.24 1015.21 1015.13 1014.97 1014.76 1014.51 1014.22 1013.93 1013.65 1013.40 1013.17 1012.96 1012.77 1012.57 1012.35 1012.09 1011.80 1011.48 1011.15 1010.83 1010.56 1010.37 1010.27 1010.28 1010.40 1010.62 1010.90
1014.71 1015.31 1015.73 1015.96 1016.01 1015.92 1015.73 1015.48 1015.23 1015.01 1014.87 1014.81 1014.84 1014.95 1015.10 1015.27 1015.41 1015.49 1015.50 1015.41 1015.23 1014.98 1014.68 1014.36 1014.04 1013.75 1013.51 1013.30 1013.13 1012.97 1012.80 1012.60 1012.35 1012.05 1011.71 1011.34 1010.99 1010.69 1010.46 1010.34 1010.32 1010.41 1010.59 1010.83
1015.14 1015.61 1015.90 1016.01 1015.95 1015.77 1015.50 1015.20 1014.91 1014.69 1014.57 1014.55 1014.64 1014.81 1015.04 1015.26 1015.45 1015.57 1015.58 1015.48 1015.29 1015.01 1014.69 1014.36 1014.04 1013.78 1013.57 1013.42 1013.30 1013.20 1013.09 1012.93 1012.71 1012.44 1012.11 1011.76 1011.40 1011.09 1010.85 1010.70 1010.65 1010.69 1010.81 1010.97
1015.19 1015.52 1015.69 1015.71 1015.58 1015.35 1015.06 1014.76 1014.50 1014.32 1014.24 1014.29 1014.43 1014.66 1014.93 1015.19 1015.39 1015.51 1015.52 1015.41 1015.20 1014.91 1014.58 1014.26 1013.97 1013.74 1013.59 1013.49 1013.44 1013.41 1013.36 1013.27 1013.11 1012.89 1012.60 1012.28 1011.95 1011.65 1011.41 1011.24 1011.15 1011.12 1011.15 1011.21
1014.87 1015.09 1015.18 1015.14 1014.99 1014.77 1014.52 1014.27 1014.08 1013.98 1013.98 1014.09 1014.29 1014.56 1014.85 1015.12 1015.32 1015.42 1015.41 1015.28 1015.05 1014.76 1014.44 1014.13 1013.87 1013.68 1013.57 1013.54 1013.55 1013.58 1013.59 1013.56 1013.46 1013.30 1013.07 1012.80 1012.51 1012.23 1011.99 1011.80 1011.66 1011.56 1011.49 1011.42
1014.28 1014.42 1014.46 1014.42 1014.30 1014.15 1013.98 1013.84 1013.76 1013.76 1013.85 1014.04 1014.29 1014.58 1014.88 1015.13 1015.30 1015.38 1015.33 1015.18 1014.94 1014.64 1014.33 1014.03 1013.80 1013.64 1013.57 1013.56 1013.61 1013.68 1013.74 1013.76 1013.71 1013.60 1013.42 1013.20 1012.95 1012.70 1012.46 1012.24 1012.06 1011.88 1011.71 1011.52
1013.54 1013.65 1013.69 1013.69 1013.65 1013.60 1013.56 1013.55 1013.61 1013.72 1013.91 1014.16 1014.45 1014.75 1015.03 1015.26 1015.39 1015.43 1015.35 1015.17 1014.92 1014.61 1014.30 1014.02 1013.80 1013.66 1013.59 1013.60 1013.65 1013.73 1013.80 1013.83 1013.82 1013.74 1013.60 1013.41 1013.20 1012.96 1012.73 1012.49 1012.26 1012.01 1011.75 1011.46
1012.79 1012.89 1012.98 1013.05 1013.12 1013.20 1013.31 1013.45 1013.64 1013.87 1014.14 1014.44 1014.75 1015.05 1015.31 1015.49 1015.59 1015.58 1015.47 1015.27 1015.01 1014.70 1014.40 1014.12 1013.90 1013.74 1013.66 1013.65 1013.68 1013.73 1013.78 1013.80 1013.77 1013.70 1013.58 1013.42 1013.22 1013.00 1012.76 1012.51 1012.24 1011.95 1011.62 1011.25
Thickness
5814 5800 5790 5795 5800 5801 5795 5786 5783 5790 5804 5796 5787 5787 5793 5797 5796 5793 5791 5790 5790 5791 5793 5794 5793 5793 5791 5789 5787 5785 5783 5782 5780 5778 5775 5773 5771 5772 5772 5772 5771 5771 5770 5768
5797 5793 5808 5812 5809 5803 5796 5787 5785 5793 5804 5796 5786 5786 5795 5798 5798 5799 5796 5794 5793 5791 5791 5793 5793 5792 5790 5788 5787 5785 5783 5782 5780 5778 5777 5775 5773 5772 5772 5772 5771 5770 5769 5768
5793 5803 5816 5811 5804 5798 5795 5789 5788 5787 5794 5795 5787 5782 5789 5798 5803 5803 5802 5800 5798 5796 5793 5793 5793 5792 5791 5789 5788 5787 5784 5782 5780 5779 5776 5775 5773 5771 5770 5770 5769 5769 5769 5768
5798 5809 5811 5806 5802 5801 5788 5805 5800 5793 5780 5770 5780 5758 5782 5791 5794 5798 5800 5801 5800 5801 5799 5796 5794 5793 5792 5791 5791 5788 5785 5783 5780 5778 5776 5772 5769 5766 5767 5768 5768 5768 5768 5768
5795 5807 5806 5801 5806 5808 5803 5810 5801 5791 5779 5767 5772 5761 5772 5787 5786 5795 5801 5804 5806 5805 5804 5801 5799 5797 5795 5794 5791 5788 5786 5783 5780 5778 5776 5773 5770 5768 5767 5767 5766 5766 5766 5765
5801 5813 5814 5813 5819 5817 5810 5798 5787 5774 5764 5752 5767 5760 5765 5778 5791 5800 5807 5810 5811 5810 5808 5805 5803 5800 5796 5795 5792 5789 5785 5782 5780 5778 5776 5773 5770 5768 5766 5765 5764 5763 5763 5763
5787 5800 5813 5819 5807 5807 5800 5774 5750 5745 5737 5744 5765 5762 5769 5797 5806 5809 5812 5814 5816 5814 5810 5806 5802 5799 5796 5794 5792 5789 5785 5781 5780 5778 5775 5773 5772 5770 5767 5765 5763 5762 5761 5760
5767 5771 5800 5810 5805 5794 5790 5778 5750 5737 5733 5744 5759 5759 5783 5807 5814 5816 5817 5818 5817 5814 5812 5808 5806 5802 5799 5796 5793 5789 5785 5781 5779 5777 5775 5773 5772 5770 5768 5766 5764 5762 5760 5760
5764 5770 5802 5812 5814 5804 5785 5774 5776 5752 5746 5741 5749 5765 5789 5808 5810 5811 5812 5813 5812 5813 5812 5809 5806 5804 5800 5796 5793 5790 5786 5782 5779 5777 5775 5773 5771 5769 5767 5766 5764 5762 5761 5759
5777 5771 5790 5803 5807 5801 5795 5778 5760 5747 5734 5731 5745 5756 5767 5789 5797 5803 5806 5808 5810 5812 5811 5808 5805 5803 5800 5798 5795 5791 5787 5783 5780 5778 5776 5774 5771 5769 5767 5765 5762 5761 5759 5758
5779 5767 5774 5784 5782 5779 5780 5771 5755 5742 5743 5730 5730 5750 5788 5790 5797 5800 5804 5808 5809 5810 5810 5809 5806 5803 5800 5797 5794 5789 5786 5782 5779 5777 5775 5773 5770 5768 5765 5763 5761 5759 5757 5755
5770 5757 5752 5769 5786 5792 5786 5774 5760 5748 5739 5734 5732 5751 5797 5796 5800 5801 5803 5807 5809 5810 5810 5808 5805 5801 5798 5795 5792 5788 5785 5782 5779 5777 5774 5771 5769 5766 5763 5761 5759 5757 5755 5753
5766 5750 5738 5746 5759 5772 5772 5769 5764 5751 5736 5727 5730 5754 5793 5794 5797 5800 5801 5803 5805 5805 5805 5802 5800 5798 5795 5792 5790 5786 5784 5781 5778 5775 5772 5768 5766 5763 5761 5759 5757 5755 5753 5751
5768 5744 5740 5735 5744 5757 5760 5762 5761 5752 5736 5731 5740 5756 5775 5782 5787 5792 5795 5798 5799 5799 5798 5796 5794 5794 5793 5791 5788 5785 5782 5780 5776 5772 5768 5765 5764 5762 5759 5757 5755 5752 5751 5748
5759 5741 5745 5749 5757 5758 5758 5759 5758 5755 5750 5743 5750 5754 5768 5777 5781 5786 5790 5792 5792 5792 5791 5791 5790 5789 5788 5787 5784 5782 5780 5777 5774 5769 5766 5763 5761 5759 5756 5754 5752 5749 5748 5746
5743 5737 5739 5741 5749 5752 5750 5754 5756 5755 5754 5752 5753 5754 5770 5775 5778 5779 5782 5784 5784 5784 5786 5786 5785 5784 5783 5783 5781 5779 5777 5774 5770 5766 5763 5761 5757 5755 5752 5750 5748 5746 5744 5741
5727 5727 5722 5720 5733 5739 5730 5744 5748 5748 5751 5751 5746 5755 5764 5765 5768 5770 5773 5775 5776 5778 5779 5779 5779 5779 5779 5778 5777 5775 5773 5770 5766 5762 5760 5757 5754 5750 5748 5747 5744 5741 5739 5736
5720 5713 5705 5706 5717 5709 5728 5750 5751 5747 5748 5751 5753 5756 5758 5760 5764 5766 5768 5768 5768 5770 5771 5772 5773 5773 5773 5772 5771 5770 5768 5764 5760 5757 5754 5752 5749 5746 5743 5741 5739 5736 5734 5732
5719 5711 5697 5691 5695 5705 5726 5740 5741 5736 5735 5746 5747 5749 5751 5755 5757 5755 5761 5763 5762 5763 5764 5765 5766 5767 5766 5764 5764 5762 5759 5756 5753 5751 5748 5746 5744 5740 5737 5734 5732 5731 5729 5727
5707 5705 5694 5685 5689 5689 5716 5737 5743 5736 5722 5741 5742 5741 5742 5744 5733 5739 5752 5753 5754 5756 5757 5757 5758 5757 5756 5756 5755 5752 5749 5747 5745 5745 5743 5741 5738 5736 5732 5729 5727 5725 5723 5721
5691 5687 5683 5680 5683 5694 5717 5728 5733 5712 5716 5734 5735 5735 5735 5733 5735 5741 5745 5745 5745 5746 5747 5748 5748 5746 5745 5746 5744 5740 5738 5737 5738 5737 5736 5734 5732 5730 5728 5724 5720 5717 5715 5713
5678 5676 5673 5670 5674 5685 5714 5716 5711 5713 5724 5726 5728 5729 5730 5730 5731 5733 5734 5734 5735 5735 5736 5737 5736 5734 5734 5735 5733 5729 5728 5729 5729 5727 5726 5725 5723 5722 5721 5717 5714 5711 5708 5705
5672 5675 5674 5676 5682 5697 5704 5707 5713 5714 5714 5717 5719 5722 5723 5721 5721 5722 5722 5723 5723 5724 5724 5725 5724 5723 5723 5723 5722 5719 5719 5719 5718 5717 5715 5713 5713 5712 5711 5708 5706 5703 5701 5698
5670 5671 5669 5671 5682 5691 5697 5702 5705 5707 5709 5712 5714 5714 5715 5712 5712 5711 5711 5711 5712 5712 5712 5712 5712 5711 5710 5711 5710 5710 5710 5709 5708 5705 5704 5703 5702 5701 5701 5700 5699 5696 5692 5691
5663 5664 5661 5664 5674 5681 5688 5692 5696 5699 5702 5703 5704 5705 5705 5704 5702 5701 5700 5700 5700 5701 5701 5701 5700 5699 5699 5699 5699 5699 5699 5698 5696 5695 5693 5693 5692 5691 5690 5689 5688 5688 5687 5685
5656 5657 5657 5660 5669 5669 5676 5685 5688 5689 5691 5693 5694 5694 5695 5696 5693 5692 5689 5689 5689 5690 5690 5689 5688 5688 5688 5688 5688 5689 5688 5687 5686 5684 5683 5682 5681 5680 5680 5679 5678 5678 5677 5676